This is the latest recevied weather packets stored in our database for station/object HB9TJM-8. If no packets are shown the sender has not sent any weather packets the latest 10 day(s).
| Time | Temp. | Humidity | Pressure | Rain* | Wind** | Luminosity | Snow |
|---|---|---|---|---|---|---|---|
| 1777779258 | 12.78° C | 44% | 1017.4 hPa | 0 mm | - | 0 W/m² | - |
| 1777778950 | 12.78° C | 45% | 1017.9 hPa | 0 mm | - | 0 W/m² | - |
| 1777778643 | 12.78° C | 45% | 1017.4 hPa | 0 mm | - | 0 W/m² | - |
| 1777778335 | 12.78° C | 46% | 1017.4 hPa | 0 mm | - | 0 W/m² | - |
| 1777778028 | 12.78° C | 47% | 1017.9 hPa | 0 mm | - | 0 W/m² | - |
| 1777777720 | 12.78° C | 48% | 1017.7 hPa | 0 mm | - | 0 W/m² | - |
| 1777777413 | 12.22° C | 52% | 1017.7 hPa | 0 mm | - | 0 W/m² | - |
| 1777777106 | 12.78° C | 51% | 1017.6 hPa | 0 mm | - | 0 W/m² | - |
| 1777776799 | 12.78° C | 52% | 1017.5 hPa | 0 mm | - | 0 W/m² | - |
| 1777776491 | 12.78° C | 51% | 1017.9 hPa | 0 mm | - | 0 W/m² | - |
| 1777776183 | 13.33° C | 48% | 1017.6 hPa | 0 mm | - | 0 W/m² | - |
| 1777775876 | 12.78° C | 47% | 1017.7 hPa | 0 mm | - | 0 W/m² | - |
| 1777775568 | 12.78° C | 51% | 1017.5 hPa | 0 mm | - | 0 W/m² | - |
| 1777775261 | 13.33° C | 50% | 1017.6 hPa | 0 mm | - | 0 W/m² | - |
| 1777774953 | 13.33° C | 51% | 1017.5 hPa | 0 mm | - | 0 W/m² | - |
| 1777774646 | 13.33° C | 50% | 1017.6 hPa | 0 mm | - | 0 W/m² | - |
| 1777774338 | 13.33° C | 52% | 1017.9 hPa | 0 mm | - | 0 W/m² | - |
| 1777774030 | 13.33° C | 51% | 1017.3 hPa | 0 mm | - | 0 W/m² | - |
| 1777773723 | 13.33° C | 53% | 1017.8 hPa | 0 mm | - | 0 W/m² | - |
| 1777773415 | 13.33° C | 55% | 1017.9 hPa | 0 mm | - | 0 W/m² | - |
| 1777773108 | 13.33° C | 56% | 1017.9 hPa | 0 mm | - | 0 W/m² | - |
| 1777772801 | 12.78° C | 58% | 1017.8 hPa | 0 mm | - | 0 W/m² | - |
| 1777772494 | 13.33° C | 57% | 1018 hPa | 0 mm | - | 0 W/m² | - |
| 1777772186 | 12.78° C | 58% | 1017.9 hPa | 0 mm | - | 0 W/m² | - |
| 1777771880 | 12.78° C | 60% | 1018 hPa | 0 mm | - | 0 W/m² | - |
* Rain latest hour (hover to see other rain measurements)
** Current wind speed in m/s (hover to see current wind gust speed)